Gainesville, GA

1:29 AM EDT on July 21, 2017 (GMT -0400)
Gilmer Memorial

Weather History for KGVL - September, 2014

Change the Weather History Date:

Saturday, September 20, 2014

  Actual Average Record
Temperature  
Mean Temperature 73 °F 70 °F  
Max Temperature 81 °F 79 °F 96 °F (1954)
Min Temperature 65 °F 61 °F 41 °F (1938)
Degree Days  
Heating Degree Days 0 0  
Month to date heating degree days 0 0  
Since 1 July heating degree days 0 0  
Cooling Degree Days 8 6  
Month to date cooling degree days 225 172  
Year to date cooling degree days 1572 1498  
Growing Degree Days 22 (Base 50)    
Moisture  
Dew Point 59 °F    
Average Humidity 66    
Maximum Humidity 87    
Minimum Humidity 45    
Precipitation  
Precipitation 0.00 in 0.16 in 2.12 in (1943)
Month to date precipitation 4.12 3.11  
Year to date precipitation 32.91 39.36  
Sea Level Pressure  
Sea Level Pressure 30.13 in    
Wind  
Wind Speed 7 mph (ENE)    
Max Wind Speed 15 mph    
Max Gust Speed 23 mph    
Visibility 10 miles    
Events Rain    
T = Trace of Precipitation, MM = Missing Value Source: NWS Daily Summary

Daily Weather History Graph

Daily Weather History Graph

Search for Another Location

Airport or City:

Trip Planner

Search our weather history database for the weather conditions in past years. The results will help you decide how hot, cold, wet, or windy it might be!

Date:

Astronomy

Sep. 20, 2014 Rise Set
Actual Time 7:21 AM EDT 7:34 PM EDT
Civil Twilight 6:56 AM EDT 7:59 PM EDT
Nautical Twilight 6:27 AM EDT 8:29 PM EDT
Astronomical Twilight 5:57 AM EDT 8:58 PM EDT
Moon 4:07 AM EDT (9/20) 5:31 PM EDT (9/20)
Length of Visible Light 13h 03m
Length of Day
12h 12m
Waning Crescent, 11% of the Moon is Illuminated
Sep 20
Waning Crescent
Sep 24
New
Oct 1
First Quarter
Oct 8
Full
Oct 15
Last Quarter

Hourly Weather History & Observations

Time (EDT) Temp. Heat Index Dew Point Humidity Pressure Visibility Wind Dir Wind Speed Gust Speed Precip Events Conditions
12:53 AM 66.9 °F - 60.1 °F 79% 30.17 in 10.0 mi East 11.5 mph - N/A   Mostly Cloudy
1:53 AM 66.9 °F - 60.1 °F 79% 30.15 in 10.0 mi East 8.1 mph - N/A   Scattered Clouds
2:45 AM 66.9 °F - 60.1 °F 79% 30.19 in 10.0 mi ENE 10.4 mph - N/A   Overcast
2:53 AM 66.9 °F - 60.1 °F 79% 30.15 in 10.0 mi ENE 10.4 mph - 0.00 in Rain Light Rain
3:29 AM 66.9 °F - 60.1 °F 79% 30.18 in 10.0 mi ENE 10.4 mph - 0.00 in   Overcast
3:41 AM 66.0 °F - 60.1 °F 81% 30.18 in 10.0 mi East 6.9 mph - 0.00 in   Overcast
3:51 AM 66.2 °F - 60.8 °F 83% 30.17 in 10.0 mi ENE 10.4 mph - 0.00 in   Mostly Cloudy
3:53 AM 66.0 °F - 60.1 °F 81% 30.14 in 10.0 mi ENE 8.1 mph - 0.00 in   Scattered Clouds
4:53 AM 66.0 °F - 60.1 °F 81% 30.13 in 10.0 mi ENE 8.1 mph - N/A   Mostly Cloudy
5:00 AM 66.0 °F - 60.1 °F 81% 30.17 in 10.0 mi ENE 8.1 mph - N/A   Overcast
5:18 AM 66.0 °F - 61.0 °F 84% 30.18 in 10.0 mi ENE 8.1 mph - N/A   Overcast
5:53 AM 66.0 °F - 60.1 °F 81% 30.14 in 10.0 mi ENE 9.2 mph - N/A   Mostly Cloudy
6:53 AM 64.9 °F - 60.1 °F 84% 30.15 in 10.0 mi East 8.1 mph - N/A   Mostly Cloudy
7:53 AM 64.9 °F - 59.0 °F 81% 30.17 in 10.0 mi ENE 10.4 mph - N/A   Overcast
8:53 AM 66.0 °F - 59.0 °F 78% 30.18 in 10.0 mi ENE 10.4 mph - N/A   Overcast
9:41 AM 68.0 °F - 59.0 °F 73% 30.22 in 10.0 mi ENE 10.4 mph - N/A   Mostly Cloudy
9:53 AM 68.0 °F - 59.0 °F 73% 30.18 in 10.0 mi ENE 12.7 mph - N/A   Scattered Clouds
10:53 AM 73.0 °F - 61.0 °F 66% 30.18 in 10.0 mi East 12.7 mph - N/A   Partly Cloudy
11:53 AM 75.0 °F - 62.1 °F 64% 30.17 in 10.0 mi ESE 10.4 mph - N/A   Partly Cloudy
12:53 PM 77.0 °F - 61.0 °F 58% 30.14 in 10.0 mi ENE 11.5 mph - N/A   Scattered Clouds
1:53 PM 78.1 °F - 60.1 °F 54% 30.12 in 10.0 mi NE 11.5 mph - N/A   Partly Cloudy
2:53 PM 80.1 °F 80.7 °F 59.0 °F 48% 30.09 in 10.0 mi East 11.5 mph 16.1 mph N/A   Partly Cloudy
3:53 PM 80.1 °F 80.4 °F 57.0 °F 45% 30.07 in 10.0 mi Variable 4.6 mph - N/A   Clear
4:53 PM 80.1 °F 80.4 °F 57.0 °F 45% 30.05 in 10.0 mi ENE 10.4 mph - N/A   Partly Cloudy
5:53 PM 79.0 °F - 57.9 °F 48% 30.04 in 10.0 mi ESE 6.9 mph - N/A   Clear
6:53 PM 75.9 °F - 57.9 °F 54% 30.04 in 10.0 mi East 4.6 mph - N/A   Clear
7:53 PM 72.0 °F - 57.9 °F 61% 30.04 in 10.0 mi Calm Calm - N/A   Clear
8:53 PM 72.0 °F - 59.0 °F 64% 30.04 in 10.0 mi Calm Calm - N/A   Clear
9:53 PM 72.0 °F - 57.0 °F 59% 30.04 in 10.0 mi East 3.5 mph - N/A   Clear
10:53 PM 69.1 °F - 57.9 °F 68% 30.06 in 10.0 mi Calm Calm - N/A   Clear
11:53 PM 66.9 °F - 60.1 °F 79% 30.06 in 10.0 mi Calm Calm - N/A   Clear